CES745 NZAA-SAEZ

Flight info

Callsign CES745
Flight time N/A
Altitude 36000
Route ORIDI H211 HN H328 GS/N0485F350 DCT 40S175W/N0482F370 40S170W 41S160W 42S150W 43S140W 44S131W/N0480F390 46S120W 48S110W 49S100W 48S090W 44S080W/N0479F410 DCT MON UM658 BAR UZ109 ISMIL UT655 ASADA ASADA7X
Aircraft A359/H-SDE2E3GHIJ3J4J5LM1ORWXY/LB1D1

Departure

Time N/A
Airport Auckland International Airport (NZAA)

Arrival

Time 2026-04-28 02:34
Airport Ezeiza International Airport - Ministro Pistarini (SAEZ)
Time Latitude Longitude Altitude Speed Heading
2026-04-28 01:11 -40.30672 -69.89906 41028 ft 537 kts 54°
2026-04-28 01:12 -40.26148 -69.82097 41027 ft 538 kts 54°
2026-04-28 01:12 -40.21621 -69.74301 41030 ft 538 kts 54°
2026-04-28 01:13 -40.17121 -69.66570 41027 ft 538 kts 54°
2026-04-28 01:13 -40.10318 -69.54919 41026 ft 537 kts 53°
2026-04-28 01:14 -40.05776 -69.47164 41026 ft 537 kts 53°
2026-04-28 01:14 -40.01234 -69.39427 41018 ft 537 kts 53°
2026-04-28 01:15 -39.96688 -69.31704 41017 ft 536 kts 53°
2026-04-28 01:15 -39.92141 -69.23997 41018 ft 536 kts 53°
2026-04-28 01:16 -39.88356 -69.17597 41016 ft 536 kts 53°
2026-04-28 01:16 -39.83064 -69.08670 41013 ft 535 kts 53°
2026-04-28 01:17 -39.78508 -69.01005 41016 ft 535 kts 53°
2026-04-28 01:17 -39.73945 -68.93346 41013 ft 535 kts 53°
2026-04-28 01:18 -39.70122 -68.86944 41014 ft 535 kts 52°
2026-04-28 01:18 -39.65585 -68.79363 41014 ft 535 kts 52°
2026-04-28 01:19 -39.61008 -68.71733 41018 ft 535 kts 52°
2026-04-28 01:19 -39.56424 -68.64111 41017 ft 536 kts 52°
2026-04-28 01:20 -39.51832 -68.56493 41013 ft 536 kts 52°
2026-04-28 01:20 -39.47239 -68.48892 41015 ft 536 kts 52°
2026-04-28 01:21 -39.42641 -68.41300 41008 ft 536 kts 52°
2026-04-28 01:21 -39.38041 -68.33724 41009 ft 535 kts 52°
2026-04-28 01:22 -39.33436 -68.26157 41001 ft 535 kts 52°
2026-04-28 01:22 -39.28855 -68.18648 41001 ft 535 kts 52°
2026-04-28 01:23 -39.24244 -68.11107 40998 ft 535 kts 52°
2026-04-28 01:23 -39.19629 -68.03578 40996 ft 535 kts 51°
2026-04-28 01:24 -39.15018 -67.96071 40992 ft 535 kts 51°
2026-04-28 01:24 -39.10394 -67.88564 40991 ft 535 kts 51°
2026-04-28 01:25 -39.05796 -67.81114 40989 ft 534 kts 51°
2026-04-28 01:25 -39.01167 -67.73632 40993 ft 534 kts 51°
2026-04-28 01:26 -38.96529 -67.66155 40996 ft 535 kts 51°
2026-04-28 01:26 -38.91887 -67.58687 40993 ft 535 kts 51°
2026-04-28 01:27 -38.87245 -67.51236 40993 ft 535 kts 51°
2026-04-28 01:27 -38.82594 -67.43788 40994 ft 535 kts 51°
2026-04-28 01:28 -38.77939 -67.36353 40992 ft 535 kts 51°
2026-04-28 01:28 -38.73279 -67.28925 40992 ft 535 kts 50°
2026-04-28 01:29 -38.68615 -67.21508 40991 ft 535 kts 50°
2026-04-28 01:29 -38.63944 -67.14097 40993 ft 535 kts 50°
2026-04-28 01:30 -38.59271 -67.06700 40992 ft 535 kts 50°
2026-04-28 01:30 -38.54622 -66.99358 40991 ft 535 kts 50°
2026-04-28 01:31 -38.49939 -66.91979 40997 ft 535 kts 50°
2026-04-28 01:31 -38.45250 -66.84608 40995 ft 535 kts 50°
2026-04-28 01:32 -38.40552 -66.77240 40995 ft 535 kts 50°
2026-04-28 01:32 -38.35854 -66.69888 40998 ft 535 kts 50°
2026-04-28 01:33 -38.31789 -66.61945 41002 ft 535 kts 60°
2026-04-28 01:33 -38.28189 -66.53631 41001 ft 535 kts 61°
2026-04-28 01:34 -38.24680 -66.45265 41003 ft 535 kts 62°
2026-04-28 01:34 -38.21176 -66.36919 41005 ft 535 kts 61°
2026-04-28 01:35 -38.17653 -66.28591 41005 ft 534 kts 61°
2026-04-28 01:35 -38.14148 -66.20350 41006 ft 534 kts 61°
2026-04-28 01:36 -38.10604 -66.12047 41008 ft 534 kts 61°
2026-04-28 01:36 -38.07059 -66.03759 41008 ft 534 kts 61°
2026-04-28 01:37 -38.03514 -65.95491 41014 ft 534 kts 60°
2026-04-28 01:37 -37.99960 -65.87223 41015 ft 534 kts 60°
2026-04-28 01:38 -37.96400 -65.78964 41019 ft 534 kts 60°
2026-04-28 01:38 -37.92836 -65.70717 41020 ft 533 kts 60°
2026-04-28 01:39 -37.89261 -65.62466 41020 ft 533 kts 60°
2026-04-28 01:39 -37.85709 -65.54289 41021 ft 533 kts 60°
2026-04-28 01:40 -37.82127 -65.46063 41022 ft 533 kts 60°
2026-04-28 01:40 -37.78543 -65.37853 41020 ft 533 kts 60°
2026-04-28 01:41 -37.74950 -65.29644 41020 ft 533 kts 60°
2026-04-28 01:41 -37.71355 -65.21452 41019 ft 533 kts 60°
2026-04-28 01:42 -37.67750 -65.13258 41021 ft 533 kts 59°
2026-04-28 01:42 -37.64163 -65.05126 41022 ft 534 kts 59°
2026-04-28 01:43 -37.60548 -64.96951 41022 ft 534 kts 59°
2026-04-28 01:43 -37.56923 -64.88776 41022 ft 534 kts 59°
2026-04-28 01:44 -37.53292 -64.80605 41025 ft 534 kts 59°
2026-04-28 01:44 -37.49654 -64.72438 41022 ft 534 kts 59°
2026-04-28 01:45 -37.46012 -64.64286 41022 ft 534 kts 59°
2026-04-28 01:45 -37.42360 -64.56129 41022 ft 535 kts 59°
2026-04-28 01:46 -37.38701 -64.47979 41025 ft 535 kts 59°
2026-04-28 01:46 -37.35035 -64.39834 41025 ft 535 kts 59°
2026-04-28 01:47 -37.31352 -64.31703 41023 ft 536 kts 58°
2026-04-28 01:47 -37.27640 -64.23584 41024 ft 536 kts 58°
2026-04-28 01:48 -37.23921 -64.15478 41023 ft 536 kts 58°
2026-04-28 01:48 -37.20214 -64.07416 41021 ft 536 kts 58°
2026-04-28 01:49 -37.16481 -63.99314 41024 ft 537 kts 58°
2026-04-28 01:49 -37.12742 -63.91219 41025 ft 537 kts 58°
2026-04-28 01:50 -37.08994 -63.83125 41026 ft 537 kts 58°
2026-04-28 01:50 -37.05239 -63.75034 41028 ft 537 kts 58°
2026-04-28 01:51 -37.01478 -63.66950 41030 ft 537 kts 58°
2026-04-28 01:51 -36.97710 -63.58872 41025 ft 538 kts 58°
2026-04-28 01:52 -36.93933 -63.50795 41026 ft 538 kts 57°
2026-04-28 01:52 -36.90153 -63.42728 41025 ft 538 kts 57°
2026-04-28 01:53 -36.86367 -63.34671 41040 ft 538 kts 57°
2026-04-28 01:53 -36.82597 -63.26666 41040 ft 538 kts 57°
2026-04-28 01:54 -36.78797 -63.18618 41037 ft 538 kts 57°
2026-04-28 01:54 -36.74993 -63.10579 41039 ft 538 kts 57°
2026-04-28 01:55 -36.71187 -63.02559 41040 ft 538 kts 57°
2026-04-28 01:55 -36.67364 -62.94521 41043 ft 538 kts 57°
2026-04-28 01:56 -36.63544 -62.86506 41047 ft 538 kts 57°
2026-04-28 01:56 -36.59719 -62.78501 41043 ft 538 kts 57°
2026-04-28 01:57 -36.55884 -62.70493 41048 ft 538 kts 57°
2026-04-28 01:57 -36.52048 -62.62504 41056 ft 538 kts 57°
2026-04-28 01:58 -36.48226 -62.54562 41051 ft 539 kts 57°
2026-04-28 01:58 -36.44376 -62.46580 41051 ft 539 kts 56°
2026-04-28 01:59 -36.40516 -62.38598 41054 ft 539 kts 56°
2026-04-28 01:59 -36.36646 -62.30614 41051 ft 539 kts 56°
2026-04-28 02:00 -36.32777 -62.22651 41059 ft 539 kts 56°
2026-04-28 02:00 -36.28898 -62.14684 41056 ft 539 kts 56°
2026-04-28 02:01 -36.25016 -62.06733 41055 ft 539 kts 56°
2026-04-28 02:01 -36.21146 -61.98823 41063 ft 540 kts 56°
2026-04-28 02:02 -36.17249 -61.90876 41066 ft 540 kts 56°
2026-04-28 02:02 -36.13347 -61.82939 41055 ft 540 kts 56°
2026-04-28 02:03 -36.09441 -61.75004 41066 ft 540 kts 56°
2026-04-28 02:03 -36.05525 -61.67052 41073 ft 540 kts 56°
2026-04-28 02:04 -36.01615 -61.59128 41070 ft 540 kts 56°
2026-04-28 02:04 -35.97722 -61.51257 41068 ft 540 kts 56°
2026-04-28 02:05 -35.93800 -61.43348 41070 ft 540 kts 56°
2026-04-28 02:05 -35.89865 -61.35432 41069 ft 540 kts 55°
2026-04-28 02:06 -35.86602 -61.28865 41071 ft 540 kts 56°
2026-04-28 02:06 -35.82034 -61.19621 41071 ft 541 kts 56°
2026-04-28 02:07 -35.78780 -61.13043 41074 ft 541 kts 56°
2026-04-28 02:07 -35.74861 -61.05141 41072 ft 541 kts 55°
2026-04-28 02:08 -35.70926 -60.97233 41071 ft 541 kts 55°
2026-04-28 02:08 -35.66991 -60.89343 41074 ft 541 kts 55°
2026-04-28 02:09 -35.63049 -60.81456 41075 ft 541 kts 55°
2026-04-28 02:09 -35.59105 -60.73583 41073 ft 541 kts 55°
2026-04-28 02:10 -35.55155 -60.65717 41072 ft 541 kts 55°
2026-04-28 02:10 -35.51227 -60.57912 41071 ft 541 kts 55°
2026-04-28 02:11 -35.47271 -60.50071 40826 ft 537 kts 54°
2026-04-28 02:11 -35.45298 -60.46170 40099 ft 539 kts 54°
2026-04-28 02:11 -35.43311 -60.42252 39322 ft 544 kts 54°
2026-04-28 02:12 -35.41303 -60.38292 38523 ft 548 kts 54°
2026-04-28 02:12 -35.39288 -60.34317 37601 ft 551 kts 55°
2026-04-28 02:12 -35.37268 -60.30319 36707 ft 554 kts 55°
2026-04-28 02:12 -35.35240 -60.26297 35845 ft 556 kts 55°
2026-04-28 02:13 -35.33201 -60.22261 35012 ft 558 kts 55°
2026-04-28 02:13 -35.31152 -60.18217 34162 ft 560 kts 54°
2026-04-28 02:13 -35.29116 -60.14213 33219 ft 562 kts 54°
2026-04-28 02:13 -35.27047 -60.10155 32316 ft 562 kts 55°
2026-04-28 02:14 -35.24975 -60.06102 31457 ft 561 kts 55°
2026-04-28 02:14 -35.22896 -60.02041 30570 ft 562 kts 55°
2026-04-28 02:14 -35.20819 -59.97989 29637 ft 562 kts 55°
2026-04-28 02:14 -35.18748 -59.93950 28757 ft 559 kts 55°
2026-04-28 02:15 -35.14656 -59.85978 27353 ft 548 kts 55°
2026-04-28 02:15 -35.12638 -59.82053 26701 ft 542 kts 55°
2026-04-28 02:15 -35.10643 -59.78179 26053 ft 537 kts 55°
2026-04-28 02:16 -35.08663 -59.74338 25439 ft 531 kts 55°
2026-04-28 02:16 -35.06701 -59.70537 24839 ft 525 kts 55°
2026-04-28 02:16 -35.04772 -59.66793 24237 ft 520 kts 56°
2026-04-28 02:16 -35.03210 -59.62817 23605 ft 519 kts 70°
2026-04-28 02:17 -35.02457 -59.58549 22917 ft 515 kts 83°
2026-04-28 02:17 -35.02192 -59.54204 22241 ft 509 kts 87°
2026-04-28 02:17 -35.02023 -59.49904 21552 ft 504 kts 87°
2026-04-28 02:17 -35.01865 -59.45707 20914 ft 498 kts 87°
2026-04-28 02:18 -35.01701 -59.41509 20274 ft 493 kts 87°
2026-04-28 02:18 -35.01532 -59.37361 19631 ft 487 kts 87°
2026-04-28 02:18 -35.01361 -59.33252 19010 ft 482 kts 87°
2026-04-28 02:18 -35.01188 -59.29189 18388 ft 477 kts 87°
2026-04-28 02:19 -35.01015 -59.25169 17671 ft 472 kts 87°
2026-04-28 02:19 -35.00844 -59.21249 16689 ft 451 kts 87°
2026-04-28 02:19 -35.00677 -59.17469 15145 ft 444 kts 87°
2026-04-28 02:19 -35.00509 -59.13728 13628 ft 437 kts 88°
2026-04-28 02:20 -35.00345 -59.10075 12102 ft 426 kts 88°
2026-04-28 02:20 -35.00185 -59.06508 10907 ft 411 kts 88°
2026-04-28 02:20 -35.00035 -59.03223 10625 ft 377 kts 88°
2026-04-28 02:20 -34.99893 -59.00089 10496 ft 361 kts 88°
2026-04-28 02:21 -34.99757 -58.97093 10371 ft 347 kts 88°
2026-04-28 02:21 -34.99625 -58.94210 10238 ft 334 kts 89°
2026-04-28 02:21 -34.99497 -58.91441 10113 ft 321 kts 89°
2026-04-28 02:21 -34.99373 -58.88759 9946 ft 312 kts 89°
2026-04-28 02:22 -34.99252 -58.86126 9617 ft 311 kts 89°
2026-04-28 02:22 -34.99131 -58.83497 9314 ft 311 kts 89°
2026-04-28 02:22 -34.99009 -58.80866 9001 ft 309 kts 88°
2026-04-28 02:22 -34.98886 -58.78258 8710 ft 307 kts 88°
2026-04-28 02:23 -34.98763 -58.75663 8422 ft 306 kts 88°
2026-04-28 02:23 -34.98640 -58.73079 8138 ft 304 kts 88°
2026-04-28 02:23 -34.98518 -58.70517 7833 ft 302 kts 88°
2026-04-28 02:23 -34.98395 -58.67968 7542 ft 300 kts 88°
2026-04-28 02:24 -34.98273 -58.65438 7251 ft 298 kts 88°
2026-04-28 02:24 -34.98151 -58.62922 6958 ft 296 kts 88°
2026-04-28 02:24 -34.98029 -58.60418 6665 ft 295 kts 88°
2026-04-28 02:24 -34.97910 -58.57965 6372 ft 293 kts 87°
2026-04-28 02:25 -34.97789 -58.55508 6155 ft 285 kts 87°
2026-04-28 02:25 -34.97672 -58.53138 6005 ft 275 kts 87°
2026-04-28 02:25 -34.97559 -58.50851 5826 ft 266 kts 87°
2026-04-28 02:25 -34.97448 -58.48619 5579 ft 262 kts 87°
2026-04-28 02:26 -34.97339 -58.46416 5301 ft 259 kts 86°
2026-04-28 02:26 -34.97229 -58.44230 5034 ft 256 kts 86°
2026-04-28 02:26 -34.97122 -58.42098 4869 ft 247 kts 86°
2026-04-28 02:26 -34.97020 -58.40065 4680 ft 233 kts 86°
2026-04-28 02:27 -34.96923 -58.38150 4488 ft 221 kts 86°
2026-04-28 02:27 -34.96796 -58.36334 4281 ft 208 kts 80°
2026-04-28 02:27 -34.96319 -58.34762 4118 ft 190 kts 56°
2026-04-28 02:27 -34.95418 -58.33688 3929 ft 179 kts 28°
2026-04-28 02:28 -34.94184 -58.33152 3887 ft 196 kts
2026-04-28 02:28 -34.92809 -58.32900 3840 ft 200 kts
2026-04-28 02:28 -34.91423 -58.32703 3780 ft 199 kts
2026-04-28 02:28 -34.90104 -58.32515 3621 ft 183 kts
2026-04-28 02:29 -34.88890 -58.32336 3420 ft 169 kts
2026-04-28 02:29 -34.87758 -58.32203 3214 ft 157 kts 357°
2026-04-28 02:29 -34.86745 -58.32454 3009 ft 143 kts 331°
2026-04-28 02:29 -34.86035 -58.33233 2916 ft 138 kts 302°
2026-04-28 02:30 -34.85676 -58.34304 2805 ft 137 kts 283°
2026-04-28 02:30 -34.85478 -58.35436 2714 ft 138 kts 280°
2026-04-28 02:30 -34.85275 -58.36569 2544 ft 138 kts 281°
2026-04-28 02:30 -34.85068 -58.37697 2344 ft 135 kts 281°
2026-04-28 02:31 -34.84869 -58.38798 2173 ft 133 kts 281°
2026-04-28 02:31 -34.84672 -58.39894 1998 ft 132 kts 280°
2026-04-28 02:31 -34.84476 -58.40988 1826 ft 132 kts 280°
2026-04-28 02:31 -34.84280 -58.42081 1652 ft 132 kts 280°
2026-04-28 02:32 -34.84084 -58.43172 1485 ft 131 kts 280°
2026-04-28 02:32 -34.83889 -58.44259 1316 ft 131 kts 280°
2026-04-28 02:32 -34.83695 -58.45341 1137 ft 131 kts 280°
2026-04-28 02:32 -34.83501 -58.46427 964 ft 131 kts 280°
2026-04-28 02:33 -34.83308 -58.47511 799 ft 132 kts 281°
2026-04-28 02:33 -34.83112 -58.48603 629 ft 132 kts 282°
2026-04-28 02:33 -34.82916 -58.49699 437 ft 132 kts 282°
2026-04-28 02:33 -34.82722 -58.50783 283 ft 132 kts 282°
2026-04-28 02:34 -34.82525 -58.51875 135 ft 132 kts 282°
2026-04-28 02:34 -34.82327 -58.52948 94 ft 123 kts 278°
2026-04-28 02:34 -34.82195 -58.53719 91 ft 53 kts 282°
2026-04-28 02:34 -34.82165 -58.53863 91 ft 0 kts 306°
2026-04-28 02:35 -34.82155 -58.53875 91 ft 4 kts 323°
2026-04-28 02:35 -34.82114 -58.53871 91 ft 10 kts 17°
2026-04-28 02:35 -34.82041 -58.53799 88 ft 17 kts 44°
2026-04-28 02:35 -34.81941 -58.53677 87 ft 23 kts 44°
2026-04-28 02:36 -34.81848 -58.53661 87 ft 13 kts 342°
2026-04-28 02:36 -34.81752 -58.53717 84 ft 18 kts 330°
2026-04-28 02:36 -34.81708 -58.53853 86 ft 20 kts 255°
2026-04-28 02:36 -34.81742 -58.53936 86 ft 3 kts 239°
2026-04-28 02:37 -34.81767 -58.53988 85 ft 11 kts 240°
2026-04-28 02:37 -34.81785 -58.54088 84 ft 10 kts 290°
2026-04-28 02:37 -34.81753 -58.54100 81 ft 6 kts 13°
2026-04-28 02:37 -34.81690 -58.54084 84 ft 2 kts